Zurück zum Katalog

STARLINK-37454

AktivKommunikationVLEO
NORAD 69375·PAYLOAD·🇺🇸 United States

Gestartet Jun 4, 2026 von Cape Canaveral Space Force Station

Loading…

Nächste Überflüge (nächste 24 Stunden)

TLE

AktuellSource: CelesTrak SupGP

Epoche: Sep 14, 2026, 21:36 UTC

1 69375C 26123Y   26257.90048611 -.00051136  00000+0 -15102-2 0  2570
2 69375  53.1590 168.2410 0001249  95.0732 327.0862 15.34428041    10

Verfolge STARLINK-37454 in Echtzeit mit AllMySat

Download on the App Store